Regional Weather Roundup
Issued by NWS

Home | Current Version | Previous Version | Graphics & Text | Print | Product List | Glossary On
Versions: 1 2 3 4 5 6 7 8 9 10 11 12 13 14 15 16 17 18 19 20 21 22 23 24 25 26 27
000
ASUS45 KCYS 231610
RWRWY

WYOMING REGIONAL WEATHER ROUNDUP
NATIONAL WEATHER SERVICE CHEYENNE WY
1000 AM MDT TUE MAY 23 2017

NOTE:  "FAIR" INDICATES FEW OR NO CLOUDS BELOW 12,000 FEET
WITH NO SIGNIFICANT WEATHER AND/OR OBSTRUCTIONS TO VISIBILITY.

WYZ001-231700-
YELLOWSTONE NATIONAL PARK

CITY           SKY/WX    TMP DP  RH WIND       PRES   REMARKS
LK YELLOWSTONE   N/A     40  31  70 SE3       30.35F
W YELLOWSTONE  NOT AVBL

$$
WYZ002>013-054>058-071-098>099-231700-
NORTHERN WYOMING

CITY           SKY/WX    TMP DP  RH WIND       PRES   REMARKS
JACKSON        SUNNY     48  34  57 CALM      30.31F
CODY           FAIR      60  33  36 CALM      30.22F
GREYBULL       FAIR      54  40  59 CALM      30.21F
WORLAND        FAIR      54  40  59 VRB3      30.21F
SHERIDAN       FAIR      60  37  42 VRB5      30.21F
BUFFALO        FAIR      57  31  37 N18G25    30.23S
GILLETTE       FAIR      56  35  45 N10       30.19F
HULETT         FAIR      55  36  47 NW12G17   30.19F
NEWCASTLE      FAIR      52  34  50 NW17      30.18F

$$
WYZ014>020-022>026-101>103-231700-
CENTRAL WYOMING

CITY           SKY/WX    TMP DP  RH WIND       PRES   REMARKS
BIG PINEY      FAIR      48  33  56 CALM      30.32F
PINEDALE       FAIR      48  32  53 NE5       30.32F
DUBOIS         FAIR      54  27  35 N10       30.26F
LANDER         FAIR      54  39  57 E6        30.24F
RIVERTON       FAIR      52  35  52 W3        30.25F
CASPER         FAIR      53  41  63 W8        30.23F
DOUGLAS        CLOUDY    52  33  48 N15       30.21F

$$
WYZ021-027>030-104>119-231700-
SOUTHERN WYOMING

CITY           SKY/WX    TMP DP  RH WIND       PRES   REMARKS
EVANSTON       FAIR      54  39  57 VRB5      30.31S
KEMMERER         N/A     52  32  46 CALM      30.32F
FORT BRIDGER   FAIR      54  37  53 CALM      30.34F
ROCK SPRINGS   FAIR      48  32  53 VRB3      30.32F
DIXON            N/A     42  36  77 CALM      30.36F
RAWLINS        FAIR      49  36  61 W14       30.29F
SARATOGA       PTSUNNY   43  36  75 NW6       30.31F
LARAMIE        CLOUDY    43  29  57 NW17G25   30.24F
CHEYENNE       CLOUDY    47  32  56 N22G31    30.21F
TORRINGTON     CLOUDY    54  34  46 N15G24    30.16F

$$




USA.gov is the U.S. government's official web portal to all federal, state and local government web resources and services.